Radiation Dose measured at exhaust stack monitor of Miscellaneous Solid Waste Incinerator Building/Incinerator raregas monitor
Date,Time,Incinerator Gas Monitor(cps),Wind Direction,Wind Velocity(m/s)
2021/05/09,00:00,1.5,southeast,1.9
2021/05/09,00:10,1.5,south-southeast,2.0
2021/05/09,00:20,1.5,south,2.2
2021/05/09,00:30,1.6,south,2.8
2021/05/09,00:40,1.5,south-southwest,2.3
2021/05/09,00:50,1.5,southwest,2.6
2021/05/09,01:00,1.5,west-southwest,1.4
2021/05/09,01:10,1.5,west,1.9
2021/05/09,01:20,1.5,west-northwest,2.0
2021/05/09,01:30,1.6,northwest,0.9
2021/05/09,01:40,1.4,north-northeast,0.9
2021/05/09,01:50,1.4,north-northeast,2.0
2021/05/09,02:00,1.4,north-northeast,1.2
2021/05/09,02:10,1.5,northwest,1.5
2021/05/09,02:20,1.5,northwest,1.5
2021/05/09,02:30,1.6,west-northwest,2.5
2021/05/09,02:40,1.5,northwest,2.0
2021/05/09,02:50,1.6,northwest,4.0
2021/05/09,03:00,1.5,north-northwest,3.9
2021/05/09,03:10,1.5,north-northwest,3.4
2021/05/09,03:20,1.4,north-northwest,4.3
2021/05/09,03:30,1.5,north-northwest,4.3
2021/05/09,03:40,1.5,north-northwest,2.9
2021/05/09,03:50,1.5,north-northwest,2.2
2021/05/09,04:00,1.6,north,1.7
2021/05/09,04:10,1.5,north,1.5
2021/05/09,04:20,1.5,east-northeast,1.2
2021/05/09,04:30,1.6,east-southeast,0.8
2021/05/09,04:40,1.6,east-southeast,0.6
2021/05/09,04:50,1.5,north,0.8
2021/05/09,05:00,1.4,north-northwest,1.7
2021/05/09,05:10,1.5,north-northwest,3.0
2021/05/09,05:20,1.5,northwest,2.5
2021/05/09,05:30,1.5,west-northwest,1.2
2021/05/09,05:40,1.5,west,1.9
2021/05/09,05:50,1.5,west-southwest,2.3
2021/05/09,06:00,1.5,west-southwest,0.9
2021/05/09,06:10,1.6,-,CALM
2021/05/09,06:20,1.5,-,CALM
2021/05/09,06:30,1.6,east-northeast,0.9
2021/05/09,06:40,1.5,north-northeast,1.2
2021/05/09,06:50,1.5,northeast,1.5
2021/05/09,07:00,1.5,north-northeast,0.6
2021/05/09,07:10,1.5,northeast,0.9
2021/05/09,07:20,1.4,northeast,1.1
2021/05/09,07:30,1.4,northeast,1.9
2021/05/09,07:40,1.6,north-northeast,2.3
2021/05/09,07:50,1.5,north-northeast,1.5
2021/05/09,08:00,1.5,northeast,2.2
2021/05/09,08:10,1.5,northeast,1.9
2021/05/09,08:20,1.5,northeast,2.3
2021/05/09,08:30,1.5,east,2.3
2021/05/09,08:40,1.6,east-northeast,2.0
2021/05/09,08:50,1.5,east,2.3
2021/05/09,09:00,1.5,east-southeast,2.6
2021/05/09,09:10,1.5,southeast,2.5
2021/05/09,09:20,1.5,southeast,3.8
2021/05/09,09:30,1.5,southeast,4.0
2021/05/09,09:40,1.5,southeast,4.7
2021/05/09,09:50,1.5,south-southeast,4.6
2021/05/09,10:00,1.5,south-southeast,5.7
2021/05/09,10:10,1.5,south-southeast,5.9
2021/05/09,10:20,1.5,south-southeast,6.4
2021/05/09,10:30,1.4,south-southeast,6.8
2021/05/09,10:40,1.6,south-southeast,8.7
2021/05/09,10:50,1.4,south-southeast,7.7
2021/05/09,11:00,1.6,south-southeast,7.2
2021/05/09,11:10,1.5,south-southeast,6.3
2021/05/09,11:20,1.5,southeast,5.8
2021/05/09,11:30,1.4,southeast,5.8
2021/05/09,11:40,1.5,south-southeast,6.0
2021/05/09,11:50,1.4,southeast,4.2
2021/05/09,12:00,1.6,east,3.0
2021/05/09,12:10,1.4,north-northeast,3.0
2021/05/09,12:20,1.5,northeast,1.7
2021/05/09,12:30,1.4,northeast,2.2
2021/05/09,12:40,1.4,east-northeast,1.5
2021/05/09,12:50,1.6,north-northeast,0.6
2021/05/09,13:00,1.5,east,1.2
2021/05/09,13:10,1.5,-,CALM
2021/05/09,13:20,1.6,north,1.4
2021/05/09,13:30,1.5,north-northeast,1.2
2021/05/09,13:40,1.5,north,0.9
2021/05/09,13:50,1.6,north,1.7
2021/05/09,14:00,1.6,north,1.5
2021/05/09,14:10,1.5,northeast,0.9
2021/05/09,14:20,1.5,northwest,1.2
2021/05/09,14:30,1.4,northwest,0.9
2021/05/09,14:40,1.5,west-northwest,5.6
2021/05/09,14:50,1.5,west-northwest,9.8
2021/05/09,15:00,1.5,west,7.9
2021/05/09,15:10,1.5,west-northwest,6.9
2021/05/09,15:20,1.5,northwest,7.3
2021/05/09,15:30,1.5,northwest,4.2
2021/05/09,15:40,1.5,west-northwest,5.0
2021/05/09,15:50,1.6,west-northwest,8.0
2021/05/09,16:00,1.5,west-northwest,8.7
2021/05/09,16:10,1.5,west-northwest,7.1
2021/05/09,16:20,1.5,west-northwest,5.9
2021/05/09,16:30,1.5,northwest,2.2
2021/05/09,16:40,1.5,northwest,2.6
2021/05/09,16:50,1.5,northwest,1.7
2021/05/09,17:00,1.5,northwest,6.6
2021/05/09,17:10,1.5,northwest,7.3
2021/05/09,17:20,1.4,northwest,5.7
2021/05/09,17:30,1.5,northwest,6.3
2021/05/09,17:40,1.6,northwest,5.1
2021/05/09,17:50,1.4,west-northwest,4.4
2021/05/09,18:00,1.5,northwest,3.0
2021/05/09,18:10,1.6,northwest,5.1
2021/05/09,18:20,1.4,north-northwest,5.2
2021/05/09,18:30,1.4,north-northwest,5.4
2021/05/09,18:40,1.5,north-northwest,5.7
2021/05/09,18:50,1.5,north-northwest,4.8
2021/05/09,19:00,1.5,north-northwest,4.8
2021/05/09,19:10,1.5,north-northwest,3.0
2021/05/09,19:20,1.5,north-northwest,3.7
2021/05/09,19:30,1.6,north-northwest,5.4
2021/05/09,19:40,1.5,north-northwest,4.9
2021/05/09,19:50,1.5,northwest,4.3
2021/05/09,20:00,1.5,north-northwest,4.8
2021/05/09,20:10,1.5,northwest,4.4
2021/05/09,20:20,1.4,north-northwest,1.7
2021/05/09,20:30,1.5,northwest,3.8
2021/05/09,20:40,1.5,north-northwest,3.8
2021/05/09,20:50,1.5,north-northwest,3.8
2021/05/09,21:00,1.6,north-northwest,5.0
2021/05/09,21:10,1.5,north,4.9
2021/05/09,21:20,1.5,north-northwest,4.7
2021/05/09,21:30,1.5,north,3.3
2021/05/09,21:40,1.6,north-northwest,3.8
2021/05/09,21:50,1.5,north-northwest,5.8
2021/05/09,22:00,1.5,north,4.2
2021/05/09,22:10,1.5,north-northwest,4.7
2021/05/09,22:20,1.4,north,6.2
2021/05/09,22:30,1.4,north-northwest,5.4
2021/05/09,22:40,1.5,northwest,7.3
2021/05/09,22:50,1.5,west-northwest,6.5
2021/05/09,23:00,1.5,west-northwest,7.7
2021/05/09,23:10,1.5,west,11.6
2021/05/09,23:20,1.4,west,10.9
2021/05/09,23:30,1.5,west,10.9
2021/05/09,23:40,1.5,west-northwest,12.8
2021/05/09,23:50,1.5,west-northwest,9.8
